Tracking 29892 objects as of 21-Nov-2024
HD Live streaming from Space Station
objects crossing your sky now

DELTA 1 DEB

Track DELTA 1 DEB now!
10-day predictions


NORAD ID: 37639
Int'l Code: 1978-026JA
Perigee: 871.6 km
Apogee: 1,041.6 km
Inclination: 98.9 °
Period: 104.0 minutes
Semi major axis: 7327 km
RCS: 0.0118 m2 (small)
Launch date: March 5, 1978
Source: United States (US)
Launch site: AIR FORCE WESTERN TEST RANGE (AFWTR)

Note: This is SATELLITE DEBRIS
Your satellite tracking list
Your tracking list is empty




NASA's NSSDC Master Catalog

Two Line Element Set (TLE):
1 37639U 78026JA  24325.30979264  .00000359  00000-0  34111-3 0  9997
2 37639  98.9011 254.3183 0116012 147.9998   4.2452 13.84072514631026
Source of the keplerian elements: AFSPC